sat.trackr.live / text

‹ back to catalog

STARLINK-11337 [DTC]

NORAD 61940 · 2024-209B

PAYLOAD ACTIVE UNKNOWN

§ Identity

Operator
Country
US
Launch date
2024-11-14
Launch site
AFWTR
Launch vehicle
Mass (kg)
RCS (m²)

Purposes: comms

External: N2YO · Heavens-Above · Gunter

§ Orbital elements

Epoch: 2026-09-21T20:48:33.576192Z

Period
91.74 min
Inclination
53.1562°
Eccentricity
0.0000964
Mean motion
15.69716542 rev/d
Perigee alt
359.1 km
Apogee alt
360.4 km
Semi-major
6,737.8 km
B*
1.2545e-3
RAAN
123.8962°
Arg perigee
59.3254°
Mean anomaly
300.7859°
Rev number
10,753

§ Raw data

STARLINK-11337 [DTC]1 61940U 24209B   26264.86705528  .00154294  00000+0  12545-2 0  99912 61940  53.1562 123.8962 0000964  59.3254 300.7859 15.69716542107536

JSON: /api/v1/satellites/61940 · /tle

For live sub-satellite position, see the globe view (requires WebGL).

§ Visibility from observer

Set your observer location to see the next 7 days of passes ≥ 10°. The values pass through the URL so the page stays shareable.

No JS? Fill the form by hand. The geolocation button needs JavaScript.